QPF
0.01 0.00 0.00 0.00 0.00 0.00 0.00 0.00 0.00 0.00 0.00 0.00 0.00 0.00 0.00 0.00 0.00 0.00 0.00 0.00 0.00 0.01 0.02 0.04 0.04 0.03 0.04 0.04 0.04 0.05 0.06 0.05 0.05 0.05 0.04 0.03 0.04 0.05 0.07 0.08 0.07 0.05 0.06 0.08
0.00 0.00 0.00 0.00 0.00 0.00 0.00 0.01 0.00 0.00 0.00 0.00 0.00 0.00 0.00 0.00 0.00 0.00 0.00 0.00 0.00 0.00 0.02 0.03 0.03 0.02 0.02 0.03 0.02 0.02 0.03 0.03 0.04 0.04 0.03 0.04 0.04 0.04 0.05 0.04 0.05 0.04 0.04 0.03
0.00 0.00 0.00 0.00 0.00 0.00 0.00 0.00 0.00 0.00 0.00 0.00 0.00 0.00 0.00 0.00 0.00 0.00 0.00 0.00 0.00 0.00 0.00 0.01 0.01 0.01 0.01 0.01 0.01 0.01 0.01 0.01 0.02 0.02 0.02 0.02 0.03 0.04 0.04 0.03 0.02 0.02 0.03 0.03
0.00 0.00 0.00 0.00 0.00 0.00 0.00 0.00 0.00 0.00 0.00 0.00 0.00 0.00 0.00 0.00 0.00 0.00 0.00 0.00 0.00 0.00 0.00 0.00 0.00 0.00 0.00 0.00 0.01 0.01 0.01 0.00 0.00 0.00 0.00 0.01 0.01 0.01 0.02 0.02 0.02 0.01 0.01 0.02
0.00 0.00 0.00 0.00 0.00 0.00 0.00 0.00 0.00 0.00 0.00 0.00 0.00 0.00 0.00 0.00 0.00 0.00 0.00 0.00 0.00 0.00 0.00 0.00 0.00 0.00 0.00 0.00 0.00 0.00 0.00 0.00 0.00 0.00 0.00 0.00 0.00 0.00 0.01 0.01 0.01 0.01 0.01 0.01
0.00 0.00 0.00 0.00 0.00 0.00 0.00 0.00 0.00 0.00 0.00 0.00 0.00 0.00 0.00 0.00 0.00 0.00 0.00 0.00 0.00 0.00 0.00 0.00 0.00 0.00 0.00 0.00 0.00 0.00 0.00 0.00 0.00 0.00 0.00 0.00 0.00 0.00 0.00 0.00 0.00 0.00 0.00 0.01
0.00 0.00 0.00 0.00 0.00 0.00 0.00 0.00 0.00 0.00 0.00 0.00 0.00 0.00 0.00 0.00 0.00 0.00 0.00 0.00 0.00 0.00 0.00 0.00 0.00 0.00 0.00 0.00 0.00 0.00 0.00 0.00 0.00 0.00 0.00 0.00 0.00 0.00 0.00 0.00 0.00 0.00 0.00 0.00
0.00 0.00 0.00 0.00 0.00 0.00 0.00 0.00 0.00 0.00 0.00 0.00 0.00 0.00 0.00 0.00 0.00 0.00 0.00 0.00 0.00 0.00 0.00 0.00 0.00 0.00 0.00 0.00 0.00 0.00 0.00 0.00 0.00 0.00 0.00 0.00 0.00 0.00 0.00 0.00 0.00 0.00 0.00 0.00
0.00 0.00 0.00 0.00 0.00 0.00 0.00 0.00 0.00 0.00 0.00 0.00 0.00 0.00 0.00 0.00 0.00 0.00 0.00 0.00 0.00 0.00 0.00 0.00 0.00 0.00 0.00 0.00 0.00 0.00 0.00 0.00 0.00 0.00 0.00 0.00 0.00 0.00 0.00 0.00 0.00 0.00 0.00 0.00
0.00 0.00 0.00 0.00 0.00 0.00 0.00 0.00 0.00 0.00 0.00 0.00 0.00 0.00 0.00 0.00 0.00 0.00 0.00 0.00 0.00 0.00 0.00 0.00 0.00 0.00 0.00 0.00 0.00 0.00 0.00 0.00 0.00 0.00 0.00 0.00 0.00 0.00 0.00 0.00 0.00 0.00 0.00 0.00
0.00 0.00 0.00 0.00 0.00 0.00 0.00 0.00 0.00 0.00 0.00 0.00 0.00 0.00 0.00 0.00 0.00 0.00 0.00 0.00 0.00 0.00 0.00 0.00 0.00 0.00 0.00 0.00 0.00 0.00 0.00 0.00 0.00 0.00 0.00 0.00 0.00 0.00 0.00 0.00 0.00 0.00 0.00 0.01
0.00 0.00 0.00 0.00 0.00 0.00 0.00 0.00 0.00 0.00 0.00 0.00 0.01 0.00 0.00 0.00 0.00 0.00 0.00 0.00 0.00 0.00 0.00 0.00 0.00 0.00 0.00 0.00 0.00 0.00 0.00 0.00 0.00 0.00 0.00 0.00 0.00 0.00 0.00 0.00 0.00 0.00 0.00 0.00
0.00 0.01 0.01 0.00 0.00 0.00 0.00 0.00 0.00 0.00 0.01 0.01 0.01 0.00 0.00 0.00 0.00 0.00 0.00 0.00 0.00 0.00 0.00 0.00 0.00 0.00 0.00 0.00 0.00 0.00 0.00 0.00 0.00 0.00 0.00 0.00 0.00 0.00 0.00 0.00 0.00 0.00 0.00 0.00
0.01 0.02 0.01 0.01 0.00 0.00 0.00 0.00 0.00 0.01 0.03 0.02 0.01 0.00 0.00 0.00 0.00 0.00 0.00 0.00 0.00 0.00 0.00 0.00 0.00 0.00 0.00 0.00 0.00 0.00 0.00 0.00 0.00 0.00 0.00 0.00 0.00 0.00 0.00 0.00 0.00 0.00 0.00 0.00
0.01 0.02 0.01 0.00 0.00 0.00 0.00 0.00 0.00 0.01 0.01 0.01 0.01 0.01 0.01 0.02 0.01 0.01 0.00 0.00 0.00 0.00 0.00 0.00 0.00 0.00 0.00 0.00 0.00 0.00 0.00 0.00 0.00 0.00 0.00 0.00 0.00 0.00 0.00 0.00 0.00 0.00 0.00 0.00
0.01 0.01 0.01 0.01 0.00 0.00 0.00 0.00 0.00 0.01 0.01 0.01 0.01 0.02 0.01 0.01 0.00 0.00 0.00 0.00 0.00 0.00 0.00 0.00 0.00 0.00 0.00 0.00 0.00 0.00 0.00 0.00 0.00 0.00 0.00 0.00 0.00 0.00 0.00 0.00 0.00 0.00 0.00 0.00
0.01 0.01 0.01 0.01 0.00 0.01 0.01 0.01 0.01 0.01 0.01 0.01 0.01 0.01 0.00 0.00 0.00 0.00 0.00 0.00 0.00 0.00 0.00 0.00 0.00 0.00 0.00 0.00 0.00 0.00 0.00 0.00 0.00 0.00 0.00 0.00 0.00 0.00 0.00 0.00 0.00 0.00 0.00 0.00
0.01 0.01 0.02 0.02 0.01 0.02 0.01 0.01 0.01 0.00 0.00 0.00 0.01 0.00 0.00 0.00 0.00 0.00 0.00 0.00 0.00 0.00 0.00 0.00 0.00 0.00 0.00 0.00 0.00 0.00 0.00 0.00 0.00 0.00 0.00 0.00 0.00 0.00 0.00 0.00 0.00 0.00 0.00 0.00
0.00 0.01 0.03 0.04 0.02 0.01 0.00 0.00 0.00 0.00 0.00 0.00 0.00 0.00 0.00 0.00 0.00 0.00 0.00 0.00 0.00 0.00 0.00 0.00 0.00 0.00 0.00 0.00 0.00 0.00 0.00 0.00 0.00 0.00 0.00 0.00 0.00 0.00 0.00 0.00 0.00 0.00 0.00 0.00
0.00 0.00 0.02 0.03 0.02 0.01 0.00 0.00 0.00 0.00 0.00 0.00 0.00 0.00 0.00 0.00 0.00 0.00 0.00 0.00 0.00 0.00 0.00 0.00 0.00 0.00 0.00 0.00 0.00 0.00 0.00 0.00 0.00 0.00 0.00 0.00 0.00 0.00 0.00 0.00 0.00 0.00 0.00 0.00
0.00 0.01 0.02 0.02 0.02 0.01 0.00 0.00 0.00 0.00 0.00 0.00 0.00 0.00 0.00 0.00 0.00 0.00 0.00 0.00 0.00 0.00 0.00 0.00 0.00 0.00 0.00 0.00 0.00 0.00 0.00 0.00 0.00 0.00 0.00 0.00 0.00 0.00 0.00 0.00 0.00 0.00 0.00 0.00
0.01 0.01 0.01 0.02 0.02 0.01 0.00 0.00 0.01 0.01 0.01 0.01 0.00 0.00 0.00 0.00 0.00 0.00 0.00 0.00 0.00 0.00 0.00 0.00 0.00 0.00 0.00 0.00 0.00 0.00 0.00 0.00 0.00 0.00 0.00 0.00 0.00 0.00 0.00 0.00 0.00 0.00 0.00 0.00
0.01 0.01 0.01 0.02 0.01 0.01 0.00 0.01 0.01 0.00 0.00 0.00 0.00 0.00 0.00 0.00 0.00 0.00 0.00 0.00 0.00 0.00 0.00 0.00 0.00 0.00 0.00 0.00 0.00 0.00 0.00 0.00 0.00 0.00 0.00 0.00 0.00 0.00 0.00 0.00 0.00 0.00 0.00 0.00
0.00 0.00 0.00 0.00 0.00 0.00 0.00 0.00 0.00 0.00 0.00 0.00 0.00 0.00 0.00 0.00 0.00 0.00 0.00 0.00 0.00 0.00 0.00 0.00 0.00 0.00 0.00 0.00 0.00 0.00 0.00 0.00 0.00 0.00 0.00 0.00 0.00 0.00 0.00 0.00 0.00 0.00 0.00 0.00
0.00 0.00 0.00 0.00 0.00 0.00 0.00 0.00 0.00 0.00 0.00 0.00 0.00 0.00 0.00 0.00 0.00 0.00 0.00 0.00 0.00 0.00 0.00 0.00 0.00 0.00 0.00 0.00 0.00 0.00 0.00 0.00 0.00 0.00 0.00 0.00 0.00 0.00 0.00 0.00 0.00 0.00 0.00 0.00
0.00 0.00 0.01 0.01 0.01 0.01 0.01 0.00 0.00 0.00 0.00 0.00 0.00 0.00 0.00 0.00 0.00 0.00 0.01 0.01 0.00 0.00 0.00 0.00 0.00 0.00 0.00 0.00 0.00 0.00 0.00 0.00 0.00 0.00 0.00 0.00 0.00 0.00 0.00 0.00 0.00 0.00 0.00 0.00
MSLP
1015.15 1015.20 1015.23 1015.25 1015.27 1015.34 1015.48 1015.68 1015.95 1016.27 1016.60 1016.92 1017.19 1017.41 1017.55 1017.62 1017.66 1017.67 1017.68 1017.73 1017.81 1017.94 1018.11 1018.31 1018.53 1018.76 1018.97 1019.18 1019.38 1019.58 1019.76 1019.94 1020.10 1020.26 1020.38 1020.47 1020.52 1020.51 1020.45 1020.35 1020.21 1020.05 1019.89 1019.73
1015.30 1015.37 1015.40 1015.41 1015.43 1015.51 1015.66 1015.89 1016.20 1016.56 1016.92 1017.24 1017.49 1017.66 1017.72 1017.71 1017.65 1017.57 1017.51 1017.50 1017.55 1017.67 1017.84 1018.05 1018.27 1018.50 1018.73 1018.94 1019.15 1019.35 1019.56 1019.77 1019.97 1020.16 1020.32 1020.43 1020.48 1020.47 1020.40 1020.28 1020.13 1019.96 1019.81 1019.67
1015.54 1015.61 1015.63 1015.62 1015.63 1015.70 1015.86 1016.11 1016.44 1016.81 1017.17 1017.48 1017.68 1017.77 1017.74 1017.62 1017.46 1017.29 1017.16 1017.10 1017.13 1017.25 1017.44 1017.68 1017.94 1018.19 1018.44 1018.67 1018.90 1019.12 1019.34 1019.58 1019.81 1020.02 1020.20 1020.33 1020.40 1020.39 1020.32 1020.20 1020.05 1019.90 1019.76 1019.64
1015.88 1015.95 1015.95 1015.92 1015.90 1015.96 1016.12 1016.38 1016.71 1017.08 1017.42 1017.68 1017.81 1017.81 1017.67 1017.43 1017.15 1016.88 1016.68 1016.59 1016.61 1016.75 1016.98 1017.27 1017.57 1017.88 1018.16 1018.42 1018.66 1018.90 1019.14 1019.38 1019.62 1019.85 1020.05 1020.20 1020.28 1020.29 1020.23 1020.13 1020.00 1019.86 1019.74 1019.65
1016.34 1016.39 1016.36 1016.29 1016.26 1016.31 1016.46 1016.72 1017.05 1017.41 1017.71 1017.91 1017.95 1017.83 1017.57 1017.20 1016.80 1016.43 1016.17 1016.04 1016.06 1016.23 1016.51 1016.86 1017.24 1017.60 1017.93 1018.22 1018.48 1018.72 1018.95 1019.19 1019.43 1019.66 1019.86 1020.02 1020.12 1020.15 1020.13 1020.05 1019.95 1019.84 1019.75 1019.68
1016.88 1016.90 1016.83 1016.74 1016.69 1016.73 1016.88 1017.14 1017.47 1017.81 1018.07 1018.19 1018.14 1017.91 1017.51 1017.01 1016.49 1016.03 1015.70 1015.54 1015.57 1015.77 1016.11 1016.52 1016.96 1017.38 1017.75 1018.07 1018.33 1018.57 1018.78 1019.00 1019.22 1019.43 1019.63 1019.80 1019.92 1019.98 1019.99 1019.96 1019.90 1019.83 1019.76 1019.70
1017.44 1017.41 1017.31 1017.20 1017.14 1017.19 1017.35 1017.62 1017.95 1018.27 1018.49 1018.55 1018.40 1018.05 1017.53 1016.92 1016.29 1015.74 1015.35 1015.16 1015.19 1015.42 1015.80 1016.27 1016.76 1017.23 1017.63 1017.96 1018.22 1018.43 1018.61 1018.79 1018.97 1019.16 1019.35 1019.52 1019.66 1019.75 1019.81 1019.82 1019.81 1019.78 1019.74 1019.71
1017.93 1017.87 1017.75 1017.63 1017.58 1017.64 1017.82 1018.11 1018.45 1018.75 1018.93 1018.93 1018.71 1018.27 1017.65 1016.93 1016.21 1015.59 1015.14 1014.93 1014.96 1015.20 1015.61 1016.12 1016.64 1017.13 1017.54 1017.87 1018.10 1018.27 1018.41 1018.53 1018.67 1018.83 1018.99 1019.16 1019.32 1019.45 1019.55 1019.62 1019.66 1019.68 1019.68 1019.67
1018.29 1018.20 1018.08 1017.97 1017.94 1018.03 1018.25 1018.57 1018.91 1019.21 1019.36 1019.31 1019.03 1018.52 1017.82 1017.03 1016.25 1015.58 1015.10 1014.87 1014.88 1015.13 1015.54 1016.05 1016.58 1017.07 1017.46 1017.75 1017.95 1018.07 1018.14 1018.21 1018.30 1018.41 1018.56 1018.73 1018.90 1019.07 1019.22 1019.34 1019.44 1019.50 1019.55 1019.57
1018.48 1018.39 1018.28 1018.20 1018.21 1018.35 1018.60 1018.94 1019.29 1019.58 1019.71 1019.63 1019.31 1018.75 1018.02 1017.20 1016.39 1015.70 1015.20 1014.95 1014.95 1015.18 1015.57 1016.06 1016.56 1017.01 1017.36 1017.60 1017.73 1017.79 1017.81 1017.82 1017.85 1017.93 1018.05 1018.22 1018.41 1018.61 1018.81 1018.98 1019.13 1019.25 1019.34 1019.39
1018.51 1018.44 1018.37 1018.33 1018.39 1018.57 1018.85 1019.20 1019.55 1019.82 1019.93 1019.82 1019.48 1018.92 1018.18 1017.37 1016.57 1015.89 1015.40 1015.14 1015.13 1015.32 1015.68 1016.11 1016.55 1016.93 1017.21 1017.38 1017.45 1017.44 1017.39 1017.35 1017.34 1017.39 1017.49 1017.66 1017.87 1018.10 1018.33 1018.55 1018.75 1018.92 1019.04 1019.14
1018.43 1018.41 1018.39 1018.41 1018.52 1018.72 1019.01 1019.35 1019.67 1019.90 1019.98 1019.86 1019.51 1018.96 1018.26 1017.49 1016.75 1016.11 1015.65 1015.40 1015.38 1015.53 1015.83 1016.19 1016.54 1016.84 1017.03 1017.12 1017.12 1017.04 1016.93 1016.84 1016.80 1016.82 1016.91 1017.07 1017.29 1017.55 1017.81 1018.07 1018.31 1018.52 1018.69 1018.81
1018.35 1018.38 1018.42 1018.49 1018.62 1018.83 1019.10 1019.39 1019.66 1019.83 1019.86 1019.72 1019.38 1018.86 1018.23 1017.54 1016.88 1016.32 1015.91 1015.69 1015.66 1015.78 1016.01 1016.28 1016.53 1016.73 1016.83 1016.84 1016.75 1016.62 1016.46 1016.33 1016.25 1016.25 1016.33 1016.49 1016.71 1016.98 1017.27 1017.56 1017.83 1018.07 1018.27 1018.43
1018.34 1018.43 1018.51 1018.61 1018.75 1018.92 1019.13 1019.34 1019.52 1019.61 1019.58 1019.40 1019.07 1018.61 1018.06 1017.48 1016.94 1016.48 1016.15 1015.97 1015.94 1016.03 1016.19 1016.38 1016.53 1016.62 1016.63 1016.55 1016.40 1016.21 1016.01 1015.84 1015.74 1015.71 1015.78 1015.92 1016.14 1016.41 1016.71 1017.02 1017.31 1017.57 1017.80 1017.99
1018.46 1018.59 1018.70 1018.80 1018.90 1019.01 1019.12 1019.21 1019.27 1019.25 1019.14 1018.93 1018.62 1018.23 1017.78 1017.33 1016.91 1016.58 1016.34 1016.22 1016.20 1016.26 1016.37 1016.46 1016.53 1016.52 1016.44 1016.28 1016.07 1015.83 1015.60 1015.40 1015.27 1015.22 1015.26 1015.39 1015.59 1015.85 1016.14 1016.45 1016.75 1017.03 1017.27 1017.49
1018.72 1018.87 1018.97 1019.03 1019.06 1019.07 1019.05 1019.00 1018.91 1018.78 1018.60 1018.35 1018.06 1017.74 1017.41 1017.09 1016.82 1016.61 1016.48 1016.42 1016.42 1016.46 1016.51 1016.53 1016.51 1016.42 1016.26 1016.04 1015.78 1015.50 1015.23 1015.01 1014.85 1014.77 1014.78 1014.87 1015.04 1015.28 1015.55 1015.85 1016.15 1016.43 1016.69 1016.92
1019.08 1019.21 1019.27 1019.26 1019.18 1019.06 1018.90 1018.70 1018.47 1018.23 1017.97 1017.71 1017.45 1017.20 1016.98 1016.80 1016.67 1016.58 1016.55 1016.55 1016.58 1016.60 1016.61 1016.57 1016.47 1016.31 1016.09 1015.82 1015.51 1015.20 1014.91 1014.65 1014.46 1014.35 1014.31 1014.37 1014.49 1014.69 1014.93 1015.21 1015.49 1015.78 1016.04 1016.28
1019.43 1019.50 1019.49 1019.39 1019.20 1018.94 1018.64 1018.30 1017.96 1017.62 1017.32 1017.05 1016.83 1016.67 1016.56 1016.51 1016.50 1016.53 1016.58 1016.63 1016.66 1016.67 1016.64 1016.54 1016.38 1016.17 1015.90 1015.59 1015.25 1014.91 1014.59 1014.31 1014.09 1013.93 1013.85 1013.85 1013.92 1014.07 1014.27 1014.51 1014.78 1015.05 1015.31 1015.56
1019.66 1019.66 1019.56 1019.35 1019.05 1018.68 1018.26 1017.82 1017.39 1017.01 1016.68 1016.44 1016.28 1016.20 1016.19 1016.25 1016.35 1016.46 1016.57 1016.65 1016.69 1016.67 1016.59 1016.45 1016.24 1015.98 1015.67 1015.33 1014.97 1014.62 1014.28 1013.97 1013.70 1013.50 1013.36 1013.30 1013.32 1013.40 1013.56 1013.76 1014.00 1014.26 1014.51 1014.76
1019.68 1019.59 1019.40 1019.10 1018.71 1018.26 1017.77 1017.27 1016.82 1016.42 1016.12 1015.92 1015.83 1015.84 1015.92 1016.07 1016.24 1016.40 1016.54 1016.63 1016.65 1016.60 1016.48 1016.28 1016.03 1015.73 1015.40 1015.04 1014.66 1014.29 1013.93 1013.60 1013.30 1013.04 1012.85 1012.73 1012.68 1012.71 1012.81 1012.97 1013.17 1013.41 1013.65 1013.89
1019.44 1019.27 1019.00 1018.64 1018.20 1017.71 1017.20 1016.70 1016.26 1015.91 1015.66 1015.53 1015.52 1015.61 1015.77 1015.97 1016.19 1016.38 1016.52 1016.58 1016.57 1016.47 1016.30 1016.06 1015.76 1015.43 1015.07 1014.70 1014.31 1013.93 1013.55 1013.19 1012.86 1012.56 1012.32 1012.14 1012.03 1012.00 1012.05 1012.16 1012.33 1012.53 1012.76 1012.98
1018.94 1018.71 1018.40 1018.01 1017.57 1017.09 1016.60 1016.16 1015.78 1015.50 1015.34 1015.29 1015.35 1015.51 1015.73 1015.97 1016.20 1016.39 1016.50 1016.53 1016.46 1016.31 1016.08 1015.79 1015.46 1015.09 1014.71 1014.32 1013.93 1013.53 1013.14 1012.76 1012.40 1012.06 1011.77 1011.54 1011.38 1011.30 1011.29 1011.36 1011.49 1011.66 1011.85 1012.05
1018.26 1018.00 1017.67 1017.29 1016.88 1016.45 1016.04 1015.68 1015.40 1015.21 1015.14 1015.18 1015.32 1015.53 1015.78 1016.04 1016.26 1016.41 1016.48 1016.46 1016.33 1016.12 1015.84 1015.50 1015.13 1014.73 1014.33 1013.93 1013.53 1013.12 1012.71 1012.31 1011.93 1011.56 1011.24 1010.96 1010.75 1010.62 1010.58 1010.60 1010.68 1010.82 1010.97 1011.14
1017.50 1017.23 1016.92 1016.58 1016.23 1015.88 1015.57 1015.31 1015.13 1015.05 1015.07 1015.18 1015.38 1015.62 1015.89 1016.13 1016.33 1016.44 1016.46 1016.38 1016.19 1015.93 1015.59 1015.21 1014.80 1014.38 1013.95 1013.53 1013.12 1012.70 1012.28 1011.87 1011.46 1011.07 1010.72 1010.42 1010.17 1010.01 1009.92 1009.90 1009.94 1010.03 1010.14 1010.27
1016.77 1016.52 1016.25 1015.97 1015.70 1015.44 1015.22 1015.06 1014.98 1014.99 1015.08 1015.25 1015.47 1015.73 1015.99 1016.21 1016.37 1016.44 1016.41 1016.27 1016.04 1015.72 1015.34 1014.92 1014.48 1014.03 1013.59 1013.15 1012.72 1012.28 1011.86 1011.43 1011.01 1010.61 1010.25 1009.92 1009.66 1009.46 1009.34 1009.28 1009.28 1009.32 1009.39 1009.47
1016.19 1015.97 1015.75 1015.54 1015.34 1015.16 1015.03 1014.95 1014.94 1015.01 1015.14 1015.33 1015.57 1015.81 1016.05 1016.24 1016.35 1016.38 1016.30 1016.13 1015.86 1015.51 1015.10 1014.65 1014.18 1013.71 1013.25 1012.79 1012.34 1011.89 1011.45 1011.02 1010.59 1010.19 1009.82 1009.49 1009.21 1009.00 1008.84 1008.75 1008.71 1008.70 1008.72 1008.75
Thickness
5577 5569 5563 5568 5573 5576 5576 5574 5574 5581 5588 5587 5587 5590 5598 5602 5602 5602 5603 5605 5608 5611 5613 5615 5616 5617 5617 5617 5618 5618 5619 5620 5622 5623 5623 5624 5624 5625 5627 5628 5629 5630 5631 5631
5568 5565 5571 5576 5578 5577 5575 5571 5571 5577 5584 5585 5583 5587 5595 5599 5601 5602 5602 5602 5604 5605 5607 5608 5609 5609 5610 5610 5610 5611 5612 5613 5614 5615 5615 5616 5617 5618 5618 5619 5621 5622 5622 5623
5569 5569 5575 5575 5572 5572 5569 5567 5568 5570 5574 5578 5579 5581 5589 5597 5600 5601 5602 5602 5602 5603 5602 5603 5603 5603 5603 5603 5604 5605 5605 5606 5607 5607 5608 5609 5609 5609 5609 5611 5612 5613 5613 5614
5567 5572 5573 5571 5569 5569 5564 5568 5570 5569 5561 5556 5566 5559 5579 5588 5592 5596 5597 5596 5596 5598 5599 5599 5599 5598 5598 5598 5598 5599 5599 5600 5600 5600 5600 5600 5600 5600 5601 5602 5602 5604 5605 5605
5565 5569 5568 5567 5567 5568 5565 5568 5565 5563 5557 5553 5557 5553 5568 5580 5586 5591 5593 5593 5593 5593 5594 5595 5595 5595 5595 5594 5593 5592 5593 5593 5594 5593 5593 5592 5592 5592 5593 5593 5594 5595 5596 5596
5565 5568 5568 5566 5567 5567 5564 5561 5558 5548 5544 5546 5555 5548 5560 5571 5584 5589 5591 5590 5590 5589 5590 5590 5590 5590 5588 5587 5586 5586 5586 5587 5587 5587 5586 5586 5585 5584 5584 5584 5585 5586 5586 5587
5558 5562 5565 5565 5562 5560 5556 5545 5534 5535 5529 5540 5551 5549 5559 5578 5583 5584 5585 5585 5585 5584 5584 5584 5583 5583 5582 5581 5580 5580 5580 5581 5581 5580 5579 5579 5578 5577 5577 5576 5577 5578 5578 5579
5550 5549 5559 5560 5557 5553 5549 5544 5531 5530 5528 5531 5543 5545 5563 5577 5580 5580 5580 5580 5580 5579 5578 5578 5578 5577 5576 5576 5575 5574 5574 5574 5574 5573 5572 5572 5571 5570 5570 5570 5570 5570 5570 5571
5545 5547 5556 5557 5556 5554 5549 5538 5537 5522 5520 5520 5532 5544 5561 5574 5574 5573 5573 5573 5572 5572 5572 5572 5572 5571 5570 5570 5569 5568 5567 5567 5567 5566 5565 5564 5563 5563 5563 5563 5563 5563 5563 5563
5548 5542 5548 5551 5553 5550 5546 5538 5522 5519 5519 5521 5528 5535 5547 5562 5565 5566 5565 5565 5565 5565 5565 5565 5564 5564 5563 5563 5562 5561 5561 5560 5560 5559 5558 5558 5557 5556 5556 5556 5556 5556 5556 5555
5547 5536 5538 5541 5541 5540 5538 5535 5526 5512 5510 5512 5517 5538 5558 5560 5561 5560 5558 5558 5557 5558 5557 5557 5556 5555 5555 5554 5554 5553 5553 5552 5552 5552 5551 5550 5550 5550 5549 5549 5549 5548 5548 5548
5538 5526 5522 5531 5539 5540 5536 5533 5522 5515 5512 5503 5499 5530 5559 5555 5556 5555 5553 5552 5551 5551 5550 5549 5548 5547 5546 5546 5546 5546 5545 5545 5545 5545 5544 5543 5543 5543 5542 5542 5542 5541 5541 5540
5535 5522 5519 5530 5531 5532 5531 5529 5524 5516 5507 5496 5500 5531 5551 5548 5549 5548 5546 5544 5543 5544 5543 5541 5540 5538 5538 5538 5538 5538 5538 5538 5538 5537 5537 5536 5535 5535 5535 5535 5535 5534 5533 5532
5531 5517 5515 5527 5531 5524 5522 5522 5519 5510 5498 5499 5509 5528 5541 5540 5539 5538 5537 5536 5535 5535 5536 5534 5532 5531 5530 5530 5530 5530 5530 5530 5530 5530 5529 5528 5528 5528 5528 5528 5527 5526 5525 5524
5522 5511 5511 5514 5518 5517 5517 5519 5515 5508 5507 5505 5518 5520 5536 5534 5532 5532 5531 5530 5529 5529 5529 5528 5526 5523 5522 5522 5522 5522 5522 5522 5522 5522 5521 5521 5521 5521 5520 5520 5519 5518 5517 5516
5510 5506 5506 5507 5512 5509 5511 5519 5516 5513 5512 5512 5515 5523 5533 5530 5527 5526 5525 5523 5523 5523 5522 5521 5520 5517 5516 5515 5515 5515 5515 5515 5514 5513 5513 5514 5513 5512 5511 5511 5510 5509 5509 5507
5499 5496 5496 5494 5499 5499 5505 5523 5518 5513 5514 5513 5513 5524 5527 5524 5523 5521 5519 5518 5517 5516 5515 5513 5512 5510 5509 5509 5509 5508 5508 5507 5505 5505 5505 5505 5504 5504 5503 5503 5502 5501 5500 5498
5493 5487 5482 5482 5484 5491 5525 5529 5523 5517 5519 5515 5517 5519 5519 5518 5518 5516 5513 5510 5508 5507 5506 5505 5503 5502 5502 5501 5500 5500 5499 5498 5497 5496 5497 5497 5496 5496 5495 5494 5493 5492 5491 5490
5490 5483 5474 5472 5471 5486 5511 5520 5516 5509 5511 5514 5511 5511 5511 5509 5506 5504 5506 5504 5501 5500 5498 5497 5496 5495 5493 5492 5492 5490 5489 5489 5488 5488 5488 5489 5488 5487 5486 5485 5485 5484 5482 5481
5476 5474 5468 5464 5467 5479 5509 5514 5511 5505 5499 5508 5504 5501 5499 5496 5487 5493 5498 5495 5493 5492 5490 5488 5487 5485 5484 5484 5483 5481 5480 5479 5480 5481 5481 5481 5480 5479 5478 5478 5477 5475 5474 5473
5460 5458 5459 5458 5459 5475 5494 5497 5496 5486 5493 5499 5495 5492 5488 5484 5484 5486 5487 5485 5484 5483 5482 5481 5479 5477 5477 5476 5473 5472 5471 5471 5473 5473 5472 5471 5471 5470 5470 5469 5468 5466 5465 5463
5455 5447 5449 5451 5451 5469 5487 5479 5478 5481 5485 5486 5484 5483 5480 5478 5477 5476 5476 5476 5474 5472 5472 5471 5469 5468 5468 5466 5464 5463 5463 5464 5464 5463 5463 5462 5462 5461 5461 5459 5458 5456 5455 5452
5452 5458 5455 5455 5468 5477 5475 5474 5476 5474 5473 5473 5471 5470 5469 5467 5466 5466 5465 5464 5463 5462 5461 5460 5459 5458 5458 5457 5455 5454 5456 5455 5454 5453 5453 5453 5453 5452 5451 5449 5448 5446 5444 5443
5445 5449 5444 5443 5456 5462 5463 5462 5463 5462 5461 5461 5460 5459 5457 5455 5455 5454 5453 5452 5452 5452 5451 5450 5449 5448 5448 5448 5446 5446 5446 5445 5444 5443 5443 5443 5442 5442 5441 5440 5439 5437 5436 5435
5441 5437 5433 5436 5446 5449 5454 5452 5451 5451 5449 5448 5448 5447 5446 5444 5444 5443 5443 5442 5441 5442 5441 5439 5438 5438 5439 5438 5437 5437 5436 5435 5434 5434 5433 5433 5432 5432 5431 5431 5430 5429 5429 5428
5432 5430 5426 5435 5439 5435 5439 5441 5440 5438 5438 5437 5436 5436 5435 5432 5432 5431 5431 5430 5430 5429 5429 5428 5428 5427 5428 5428 5427 5427 5426 5425 5424 5424 5424 5423 5422 5421 5421 5420 5421 5421 5420 5420